Regional Weather Roundup
Issued by NWS

Home | Current Version | Previous Version | Graphics & Text | Print | Product List | Glossary On
Versions: 1 2 3 4 5 6 7 8 9 10 11 12 13 14 15 16 17 18 19 20 21 22 23 24 25 26 27 28 29 30 31 32 33 34 35 36 37 38 39 40 41 42 43 44 45 46 47 48 49 50
000
ASUS43 KBIS 272110
RWRND

NORTH DAKOTA REGIONAL WEATHER ROUNDUP
NATIONAL WEATHER SERVICE BISMARCK ND
400 PM CDT FRI MAR 27 2015

NOTE: "FAIR" INDICATES FEW OR NO CLOUDS BELOW 12,000 FEET WITH NO
SIGNIFICANT WEATHER AND/OR OBSTRUCTIONS TO VISIBILITY.


NDZ001>003-009>011-017-272200-
NORTHWEST NORTH DAKOTA

CITY           SKY/WX    TMP DP  RH WIND       PRES   REMARKS
WILLISTON      PTSUNNY   62  36  37 NW17G23   29.89F
MINOT          PTSUNNY   51  37  58 W10       29.84F
MINOT AFB      PTSUNNY   51  43  73 NW13      29.84F
$$

NDZ018>021-031>035-040>046-272200-
SOUTHWEST NORTH DAKOTA

CITY           SKY/WX    TMP DP  RH WIND       PRES   REMARKS
BISMARCK       CLOUDY    48  32  53 S9        29.90F
DICKINSON      PTSUNNY   65  34  31 NW22G30   29.86F
GARRISON         N/A     52  39  61 NW14      29.86F
HETTINGER ARPT PTSUNNY   65  33  30 NW21G30   29.89F
$$

NDZ004>008-012>016-024-026-027-054-272200-
NORTHEAST NORTH DAKOTA

CITY           SKY/WX    TMP DP  RH WIND       PRES   REMARKS
GRAND FORKS    LGT SNOW  32  21  64 S12G18    30.08F
GRND FRKS AFB  MIX PCPN  32  23  69 S9        30.07F
DEVILS LAKE    CLOUDY    28  25  86 S16       29.97F WCI  17
$$

NDZ022-023-025-028>030-036>039-047>053-272200-
SOUTHEAST NORTH DAKOTA

CITY           SKY/WX    TMP DP  RH WIND       PRES   REMARKS
FARGO          CLOUDY    37   6  27 S10       30.08F
JAMESTOWN      LGT SNOW  28  25  88 S16       29.99F VSB 1   WCI  16
$$




USA.gov is the U.S. government's official web portal to all federal, state and local government web resources and services.